QPF
0.01 0.02 0.02 0.02 0.03 0.03 0.03 0.02 0.02 0.03 0.02 0.02 0.02 0.01 0.01 0.02 0.03 0.04 0.06 0.07 0.05 0.03 0.04 0.05 0.05 0.04 0.03 0.03 0.03 0.04 0.04 0.04 0.04 0.06 0.08 0.07 0.07 0.06 0.06 0.06 0.06 0.07 0.09
0.03 0.02 0.02 0.02 0.02 0.03 0.03 0.03 0.03 0.03 0.02 0.01 0.02 0.02 0.02 0.02 0.02 0.02 0.03 0.04 0.04 0.03 0.03 0.02 0.03 0.04 0.04 0.03 0.03 0.04 0.05 0.06 0.05 0.05 0.06 0.06 0.06 0.06 0.08 0.09 0.09 0.08 0.07
0.03 0.02 0.02 0.02 0.02 0.02 0.03 0.03 0.03 0.03 0.02 0.01 0.02 0.02 0.02 0.03 0.03 0.03 0.03 0.03 0.04 0.03 0.03 0.03 0.04 0.04 0.04 0.05 0.05 0.05 0.05 0.06 0.06 0.06 0.05 0.04 0.05 0.05 0.05 0.09 0.12 0.12 0.08
0.02 0.02 0.02 0.03 0.04 0.03 0.02 0.02 0.02 0.02 0.01 0.01 0.01 0.02 0.03 0.02 0.02 0.03 0.03 0.02 0.02 0.02 0.02 0.03 0.05 0.06 0.06 0.06 0.06 0.06 0.06 0.06 0.06 0.05 0.04 0.04 0.05 0.06 0.04 0.04 0.06 0.11 0.09
0.04 0.02 0.02 0.04 0.06 0.04 0.03 0.03 0.03 0.02 0.02 0.01 0.02 0.02 0.02 0.02 0.02 0.03 0.04 0.02 0.01 0.01 0.01 0.02 0.03 0.04 0.03 0.03 0.05 0.06 0.06 0.04 0.03 0.03 0.04 0.05 0.06 0.05 0.04 0.04 0.04 0.06 0.07
0.04 0.02 0.02 0.03 0.05 0.04 0.03 0.04 0.03 0.02 0.02 0.01 0.01 0.01 0.02 0.02 0.02 0.02 0.02 0.02 0.01 0.01 0.01 0.02 0.02 0.02 0.02 0.02 0.03 0.04 0.03 0.02 0.01 0.02 0.03 0.04 0.06 0.05 0.04 0.04 0.05 0.04 0.03
0.03 0.03 0.02 0.02 0.02 0.03 0.03 0.03 0.04 0.03 0.02 0.02 0.01 0.01 0.01 0.01 0.02 0.02 0.02 0.03 0.01 0.01 0.02 0.02 0.01 0.01 0.01 0.01 0.02 0.03 0.02 0.02 0.02 0.02 0.02 0.03 0.04 0.04 0.04 0.03 0.03 0.03 0.03
0.05 0.05 0.03 0.03 0.03 0.04 0.05 0.07 0.07 0.03 0.02 0.02 0.02 0.02 0.02 0.02 0.03 0.04 0.03 0.02 0.01 0.01 0.01 0.01 0.02 0.02 0.01 0.01 0.01 0.02 0.02 0.02 0.03 0.02 0.02 0.02 0.02 0.03 0.04 0.04 0.04 0.05 0.06
0.04 0.03 0.04 0.04 0.04 0.04 0.04 0.06 0.09 0.06 0.04 0.03 0.03 0.03 0.03 0.03 0.04 0.04 0.04 0.02 0.01 0.02 0.01 0.01 0.01 0.02 0.02 0.02 0.03 0.03 0.02 0.01 0.02 0.02 0.01 0.01 0.01 0.02 0.03 0.03 0.03 0.04 0.06
0.06 0.05 0.04 0.06 0.06 0.05 0.05 0.04 0.05 0.06 0.05 0.04 0.04 0.03 0.03 0.03 0.04 0.05 0.04 0.02 0.02 0.03 0.01 0.01 0.01 0.01 0.01 0.03 0.04 0.04 0.03 0.02 0.01 0.01 0.01 0.01 0.01 0.01 0.01 0.02 0.02 0.03 0.04
0.06 0.08 0.11 0.08 0.07 0.05 0.05 0.05 0.05 0.05 0.04 0.03 0.03 0.04 0.04 0.04 0.04 0.05 0.05 0.03 0.03 0.03 0.02 0.03 0.03 0.02 0.02 0.03 0.03 0.04 0.03 0.03 0.03 0.03 0.02 0.02 0.02 0.02 0.03 0.04 0.04 0.03 0.03
0.07 0.05 0.10 0.10 0.08 0.08 0.07 0.07 0.06 0.04 0.04 0.06 0.09 0.11 0.08 0.05 0.04 0.05 0.05 0.03 0.02 0.02 0.03 0.04 0.03 0.02 0.03 0.04 0.04 0.04 0.03 0.04 0.05 0.04 0.03 0.02 0.03 0.03 0.02 0.03 0.04 0.03 0.03
0.09 0.06 0.08 0.09 0.09 0.12 0.11 0.09 0.08 0.07 0.07 0.11 0.19 0.22 0.18 0.11 0.06 0.05 0.05 0.04 0.03 0.03 0.04 0.04 0.03 0.03 0.05 0.06 0.05 0.04 0.03 0.03 0.04 0.04 0.05 0.05 0.05 0.04 0.03 0.03 0.04 0.03 0.03
0.07 0.08 0.09 0.08 0.10 0.12 0.11 0.10 0.12 0.14 0.14 0.12 0.12 0.11 0.10 0.09 0.07 0.05 0.05 0.05 0.05 0.04 0.04 0.06 0.06 0.05 0.05 0.05 0.05 0.04 0.04 0.05 0.05 0.05 0.05 0.05 0.05 0.04 0.04 0.04 0.04 0.04 0.04
0.06 0.07 0.06 0.05 0.06 0.06 0.05 0.08 0.11 0.15 0.18 0.17 0.13 0.11 0.09 0.09 0.09 0.07 0.06 0.05 0.04 0.04 0.04 0.04 0.05 0.04 0.04 0.04 0.04 0.05 0.05 0.06 0.06 0.07 0.07 0.06 0.05 0.05 0.05 0.05 0.05 0.04 0.03
0.07 0.05 0.05 0.04 0.03 0.03 0.04 0.05 0.09 0.12 0.13 0.12 0.13 0.14 0.14 0.14 0.13 0.10 0.08 0.07 0.06 0.04 0.04 0.03 0.03 0.03 0.03 0.03 0.03 0.04 0.03 0.03 0.04 0.05 0.06 0.06 0.05 0.05 0.05 0.04 0.05 0.05 0.04
0.07 0.05 0.04 0.04 0.04 0.03 0.04 0.05 0.06 0.09 0.13 0.15 0.13 0.15 0.15 0.14 0.12 0.12 0.09 0.07 0.06 0.05 0.04 0.04 0.04 0.03 0.03 0.03 0.03 0.03 0.02 0.02 0.02 0.02 0.02 0.02 0.03 0.04 0.05 0.05 0.04 0.03 0.02
0.06 0.06 0.04 0.03 0.03 0.03 0.03 0.03 0.04 0.06 0.12 0.20 0.20 0.19 0.16 0.12 0.10 0.12 0.12 0.10 0.08 0.07 0.05 0.06 0.05 0.04 0.03 0.02 0.03 0.03 0.03 0.02 0.02 0.02 0.01 0.02 0.02 0.02 0.03 0.03 0.02 0.02 0.02
0.04 0.05 0.03 0.03 0.03 0.03 0.03 0.03 0.03 0.04 0.06 0.09 0.11 0.13 0.19 0.15 0.13 0.14 0.14 0.11 0.11 0.10 0.08 0.06 0.06 0.05 0.04 0.03 0.03 0.03 0.02 0.02 0.03 0.02 0.01 0.01 0.01 0.02 0.03 0.03 0.03 0.02 0.02
0.03 0.02 0.03 0.04 0.05 0.06 0.05 0.04 0.02 0.02 0.03 0.04 0.05 0.06 0.09 0.09 0.08 0.09 0.09 0.09 0.09 0.10 0.10 0.07 0.05 0.05 0.06 0.05 0.05 0.04 0.02 0.02 0.02 0.02 0.01 0.01 0.01 0.01 0.02 0.02 0.03 0.02 0.02
0.03 0.02 0.02 0.06 0.08 0.07 0.07 0.04 0.02 0.02 0.03 0.03 0.03 0.04 0.05 0.06 0.05 0.05 0.05 0.06 0.07 0.07 0.09 0.08 0.05 0.05 0.05 0.06 0.06 0.05 0.03 0.02 0.02 0.02 0.02 0.01 0.01 0.01 0.01 0.01 0.02 0.03 0.03
0.04 0.03 0.03 0.03 0.04 0.06 0.09 0.07 0.03 0.04 0.04 0.04 0.04 0.04 0.05 0.06 0.05 0.04 0.04 0.05 0.06 0.05 0.07 0.09 0.08 0.06 0.06 0.05 0.05 0.04 0.04 0.04 0.03 0.02 0.02 0.02 0.02 0.01 0.01 0.01 0.02 0.03 0.03
0.04 0.03 0.04 0.04 0.04 0.04 0.08 0.09 0.06 0.05 0.04 0.04 0.02 0.03 0.05 0.05 0.04 0.04 0.03 0.03 0.03 0.04 0.04 0.05 0.06 0.07 0.06 0.04 0.04 0.04 0.05 0.05 0.04 0.03 0.03 0.03 0.03 0.02 0.01 0.01 0.02 0.02 0.02
0.03 0.03 0.04 0.06 0.06 0.05 0.05 0.07 0.07 0.05 0.04 0.04 0.03 0.03 0.03 0.03 0.03 0.03 0.03 0.02 0.02 0.02 0.03 0.03 0.03 0.03 0.03 0.03 0.03 0.03 0.04 0.05 0.06 0.04 0.03 0.02 0.02 0.02 0.02 0.02 0.02 0.02 0.02
0.03 0.03 0.04 0.04 0.05 0.05 0.04 0.04 0.06 0.06 0.05 0.06 0.06 0.04 0.03 0.03 0.02 0.02 0.02 0.01 0.01 0.02 0.01 0.02 0.02 0.03 0.03 0.03 0.03 0.04 0.04 0.05 0.04 0.03 0.02 0.02 0.02 0.02 0.01 0.02 0.02 0.02 0.02
0.03 0.02 0.02 0.03 0.03 0.03 0.03 0.04 0.05 0.06 0.06 0.06 0.06 0.05 0.04 0.03 0.02 0.02 0.01 0.01 0.01 0.01 0.01 0.01 0.02 0.03 0.03 0.03 0.04 0.04 0.04 0.04 0.03 0.03 0.02 0.01 0.01 0.01 0.01 0.02 0.02 0.02 0.02
MSLP
1015.74 1015.37 1014.93 1014.37 1013.66 1012.80 1011.85 1010.89 1010.01 1009.31 1008.86 1008.68 1008.73 1008.98 1009.31 1009.65 1009.92 1010.07 1010.10 1010.05 1009.97 1009.93 1009.99 1010.20 1010.56 1011.05 1011.64 1012.27 1012.90 1013.50 1014.02 1014.49 1014.90 1015.27 1015.63 1015.99 1016.34 1016.69 1017.01 1017.31 1017.56 1017.78 1017.97
1016.70 1016.36 1015.92 1015.34 1014.56 1013.61 1012.54 1011.43 1010.42 1009.59 1009.02 1008.75 1008.76 1008.97 1009.31 1009.68 1009.99 1010.19 1010.28 1010.27 1010.24 1010.23 1010.31 1010.51 1010.85 1011.30 1011.84 1012.41 1012.99 1013.53 1014.04 1014.51 1014.95 1015.39 1015.84 1016.30 1016.75 1017.18 1017.57 1017.88 1018.11 1018.27 1018.36
1017.48 1017.17 1016.75 1016.15 1015.33 1014.32 1013.15 1011.94 1010.81 1009.86 1009.19 1008.83 1008.76 1008.93 1009.25 1009.62 1009.96 1010.21 1010.36 1010.43 1010.46 1010.51 1010.63 1010.85 1011.17 1011.58 1012.06 1012.56 1013.07 1013.55 1014.01 1014.47 1014.93 1015.42 1015.94 1016.49 1017.03 1017.54 1017.98 1018.31 1018.53 1018.63 1018.64
1018.14 1017.85 1017.44 1016.84 1016.01 1014.95 1013.74 1012.45 1011.23 1010.19 1009.41 1008.94 1008.78 1008.87 1009.13 1009.48 1009.83 1010.12 1010.34 1010.48 1010.60 1010.73 1010.91 1011.16 1011.49 1011.88 1012.30 1012.73 1013.16 1013.57 1013.97 1014.39 1014.85 1015.37 1015.93 1016.53 1017.14 1017.71 1018.18 1018.54 1018.74 1018.81 1018.77
1018.73 1018.45 1018.05 1017.46 1016.63 1015.58 1014.34 1013.02 1011.74 1010.61 1009.73 1009.15 1008.86 1008.84 1009.00 1009.28 1009.60 1009.90 1010.16 1010.39 1010.60 1010.82 1011.07 1011.38 1011.74 1012.13 1012.52 1012.90 1013.26 1013.60 1013.94 1014.31 1014.74 1015.23 1015.80 1016.42 1017.06 1017.65 1018.15 1018.52 1018.73 1018.79 1018.72
1019.29 1019.02 1018.63 1018.06 1017.25 1016.21 1014.99 1013.66 1012.35 1011.16 1010.18 1009.46 1009.03 1008.85 1008.88 1009.05 1009.29 1009.56 1009.84 1010.12 1010.40 1010.72 1011.07 1011.46 1011.86 1012.28 1012.66 1013.02 1013.33 1013.61 1013.89 1014.20 1014.57 1015.03 1015.56 1016.16 1016.78 1017.37 1017.88 1018.26 1018.49 1018.56 1018.50
1019.83 1019.55 1019.17 1018.62 1017.85 1016.86 1015.67 1014.37 1013.05 1011.81 1010.74 1009.90 1009.30 1008.95 1008.80 1008.81 1008.93 1009.13 1009.38 1009.68 1010.02 1010.41 1010.85 1011.33 1011.81 1012.27 1012.68 1013.04 1013.33 1013.57 1013.80 1014.05 1014.36 1014.75 1015.22 1015.76 1016.34 1016.90 1017.40 1017.79 1018.04 1018.15 1018.14
1020.32 1020.03 1019.66 1019.13 1018.41 1017.48 1016.35 1015.10 1013.80 1012.53 1011.39 1010.42 1009.66 1009.12 1008.77 1008.59 1008.56 1008.65 1008.83 1009.11 1009.48 1009.93 1010.44 1010.99 1011.54 1012.07 1012.54 1012.92 1013.22 1013.46 1013.66 1013.86 1014.10 1014.41 1014.80 1015.26 1015.77 1016.29 1016.76 1017.16 1017.45 1017.63 1017.70
1020.73 1020.42 1020.05 1019.55 1018.88 1018.01 1016.97 1015.78 1014.52 1013.26 1012.06 1010.99 1010.09 1009.36 1008.82 1008.45 1008.24 1008.19 1008.27 1008.50 1008.85 1009.31 1009.87 1010.48 1011.10 1011.69 1012.22 1012.66 1012.99 1013.24 1013.43 1013.60 1013.79 1014.03 1014.33 1014.71 1015.15 1015.61 1016.06 1016.47 1016.80 1017.06 1017.23
1021.00 1020.68 1020.30 1019.83 1019.20 1018.41 1017.45 1016.35 1015.14 1013.91 1012.70 1011.57 1010.55 1009.67 1008.96 1008.40 1008.02 1007.82 1007.78 1007.92 1008.21 1008.66 1009.22 1009.86 1010.52 1011.17 1011.76 1012.25 1012.64 1012.93 1013.13 1013.29 1013.45 1013.63 1013.87 1014.17 1014.53 1014.93 1015.36 1015.78 1016.16 1016.50 1016.78
1021.14 1020.79 1020.41 1019.95 1019.37 1018.64 1017.76 1016.74 1015.62 1014.44 1013.25 1012.09 1011.01 1010.03 1009.18 1008.48 1007.95 1007.59 1007.43 1007.45 1007.66 1008.05 1008.57 1009.20 1009.87 1010.55 1011.18 1011.73 1012.17 1012.51 1012.75 1012.93 1013.08 1013.24 1013.42 1013.66 1013.97 1014.32 1014.72 1015.15 1015.58 1015.99 1016.37
1021.16 1020.79 1020.40 1019.94 1019.38 1018.71 1017.90 1016.97 1015.93 1014.82 1013.68 1012.54 1011.44 1010.41 1009.48 1008.67 1008.02 1007.53 1007.24 1007.14 1007.24 1007.53 1007.97 1008.55 1009.20 1009.87 1010.52 1011.11 1011.61 1012.01 1012.31 1012.53 1012.70 1012.85 1013.02 1013.23 1013.48 1013.80 1014.18 1014.61 1015.06 1015.53 1015.99
1021.11 1020.72 1020.31 1019.84 1019.29 1018.65 1017.90 1017.04 1016.09 1015.07 1014.00 1012.91 1011.83 1010.79 1009.82 1008.95 1008.21 1007.62 1007.20 1006.97 1006.94 1007.11 1007.44 1007.93 1008.51 1009.15 1009.80 1010.41 1010.95 1011.41 1011.78 1012.07 1012.28 1012.47 1012.64 1012.84 1013.07 1013.37 1013.72 1014.14 1014.60 1015.10 1015.62
1021.06 1020.64 1020.20 1019.71 1019.15 1018.52 1017.81 1017.01 1016.13 1015.19 1014.20 1013.18 1012.15 1011.14 1010.17 1009.26 1008.45 1007.78 1007.25 1006.90 1006.73 1006.75 1006.96 1007.33 1007.82 1008.39 1009.01 1009.63 1010.21 1010.73 1011.17 1011.53 1011.82 1012.05 1012.26 1012.47 1012.71 1012.98 1013.32 1013.72 1014.18 1014.68 1015.21
1021.02 1020.58 1020.10 1019.58 1019.00 1018.37 1017.68 1016.92 1016.11 1015.24 1014.32 1013.37 1012.40 1011.42 1010.46 1009.54 1008.69 1007.94 1007.31 1006.84 1006.54 1006.42 1006.48 1006.71 1007.09 1007.59 1008.16 1008.77 1009.38 1009.95 1010.46 1010.90 1011.28 1011.59 1011.85 1012.10 1012.34 1012.62 1012.95 1013.33 1013.76 1014.25 1014.77
1021.01 1020.54 1020.03 1019.48 1018.88 1018.24 1017.55 1016.82 1016.05 1015.24 1014.38 1013.49 1012.57 1011.63 1010.68 1009.75 1008.86 1008.04 1007.32 1006.74 1006.30 1006.04 1005.96 1006.07 1006.34 1006.75 1007.27 1007.85 1008.48 1009.09 1009.68 1010.20 1010.66 1011.05 1011.39 1011.68 1011.96 1012.25 1012.57 1012.94 1013.35 1013.80 1014.29
1021.00 1020.51 1019.97 1019.39 1018.77 1018.11 1017.43 1016.72 1015.98 1015.21 1014.39 1013.54 1012.65 1011.73 1010.79 1009.84 1008.92 1008.04 1007.24 1006.55 1006.01 1005.63 1005.42 1005.41 1005.57 1005.90 1006.36 1006.93 1007.56 1008.21 1008.85 1009.45 1009.99 1010.46 1010.87 1011.23 1011.55 1011.87 1012.19 1012.55 1012.94 1013.36 1013.82
1020.93 1020.43 1019.88 1019.28 1018.64 1017.99 1017.31 1016.62 1015.90 1015.15 1014.37 1013.54 1012.67 1011.75 1010.80 1009.83 1008.87 1007.94 1007.08 1006.31 1005.68 1005.20 1004.90 1004.79 1004.87 1005.13 1005.54 1006.08 1006.70 1007.37 1008.05 1008.70 1009.30 1009.84 1010.32 1010.73 1011.11 1011.46 1011.81 1012.17 1012.55 1012.95 1013.38
1020.77 1020.26 1019.70 1019.11 1018.48 1017.84 1017.18 1016.51 1015.81 1015.08 1014.31 1013.49 1012.62 1011.70 1010.74 1009.75 1008.76 1007.79 1006.89 1006.07 1005.38 1004.84 1004.48 1004.31 1004.33 1004.53 1004.89 1005.39 1005.99 1006.65 1007.34 1008.01 1008.65 1009.23 1009.76 1010.22 1010.64 1011.03 1011.41 1011.79 1012.18 1012.58 1012.99
1020.49 1019.99 1019.44 1018.86 1018.26 1017.65 1017.02 1016.38 1015.70 1015.00 1014.24 1013.43 1012.56 1011.63 1010.66 1009.66 1008.66 1007.68 1006.76 1005.93 1005.22 1004.66 1004.26 1004.06 1004.03 1004.19 1004.50 1004.95 1005.50 1006.13 1006.78 1007.44 1008.07 1008.66 1009.20 1009.70 1010.15 1010.57 1010.98 1011.39 1011.80 1012.21 1012.63
1020.11 1019.63 1019.11 1018.56 1017.99 1017.42 1016.83 1016.22 1015.58 1014.90 1014.16 1013.37 1012.50 1011.59 1010.62 1009.63 1008.65 1007.69 1006.79 1005.98 1005.28 1004.73 1004.34 1004.11 1004.06 1004.17 1004.43 1004.81 1005.29 1005.83 1006.41 1007.01 1007.59 1008.14 1008.66 1009.15 1009.61 1010.05 1010.49 1010.93 1011.37 1011.80 1012.24
1019.69 1019.23 1018.73 1018.22 1017.70 1017.17 1016.63 1016.07 1015.46 1014.81 1014.10 1013.33 1012.49 1011.60 1010.67 1009.72 1008.78 1007.87 1007.02 1006.27 1005.62 1005.10 1004.73 1004.50 1004.42 1004.48 1004.67 1004.96 1005.33 1005.76 1006.22 1006.71 1007.19 1007.66 1008.12 1008.57 1009.01 1009.45 1009.90 1010.35 1010.82 1011.28 1011.74
1019.29 1018.85 1018.38 1017.91 1017.43 1016.95 1016.45 1015.93 1015.37 1014.75 1014.08 1013.34 1012.55 1011.71 1010.83 1009.95 1009.08 1008.25 1007.49 1006.81 1006.23 1005.77 1005.42 1005.20 1005.09 1005.08 1005.18 1005.35 1005.58 1005.86 1006.18 1006.51 1006.86 1007.21 1007.58 1007.95 1008.34 1008.75 1009.19 1009.65 1010.13 1010.61 1011.09
1018.97 1018.55 1018.11 1017.67 1017.23 1016.78 1016.32 1015.83 1015.31 1014.74 1014.11 1013.43 1012.69 1011.91 1011.12 1010.33 1009.56 1008.83 1008.16 1007.58 1007.08 1006.67 1006.35 1006.12 1005.97 1005.89 1005.87 1005.91 1005.99 1006.10 1006.24 1006.41 1006.60 1006.81 1007.05 1007.33 1007.64 1008.00 1008.40 1008.84 1009.31 1009.80 1010.30
1018.76 1018.36 1017.94 1017.53 1017.11 1016.69 1016.26 1015.81 1015.32 1014.79 1014.21 1013.58 1012.92 1012.23 1011.53 1010.84 1010.18 1009.56 1009.00 1008.50 1008.08 1007.71 1007.41 1007.16 1006.97 1006.80 1006.67 1006.57 1006.49 1006.43 1006.40 1006.39 1006.42 1006.49 1006.61 1006.77 1007.00 1007.28 1007.63 1008.03 1008.47 1008.95 1009.43
1018.66 1018.28 1017.88 1017.49 1017.09 1016.69 1016.28 1015.86 1015.40 1014.91 1014.38 1013.82 1013.23 1012.63 1012.03 1011.45 1010.90 1010.39 1009.93 1009.51 1009.15 1008.82 1008.53 1008.25 1008.00 1007.75 1007.51 1007.28 1007.06 1006.85 1006.67 1006.52 1006.41 1006.36 1006.36 1006.42 1006.56 1006.77 1007.04 1007.38 1007.78 1008.21 1008.67
Thickness
5795 5796 5794 5791 5787 5784 5781 5779 5776 5774 5773 5769 5765 5761 5759 5758 5756 5756 5755 5753 5751 5749 5746 5744 5742 5741 5738 5736 5735 5733 5731 5729 5729 5726 5724 5725 5727 5726 5726 5726 5725 5724 5724
5788 5789 5789 5787 5784 5780 5778 5777 5775 5773 5772 5769 5766 5763 5759 5756 5754 5753 5752 5750 5749 5747 5745 5742 5740 5738 5736 5734 5732 5731 5728 5726 5727 5722 5717 5714 5716 5719 5723 5722 5721 5720 5720
5787 5786 5785 5783 5781 5779 5777 5777 5774 5772 5770 5768 5764 5760 5756 5753 5750 5748 5748 5748 5747 5745 5742 5740 5738 5735 5733 5731 5729 5728 5726 5722 5723 5723 5717 5710 5706 5710 5715 5717 5717 5717 5716
5789 5786 5784 5782 5780 5779 5778 5776 5774 5771 5768 5765 5761 5757 5751 5747 5747 5747 5746 5745 5745 5743 5741 5738 5736 5733 5731 5729 5727 5727 5725 5722 5719 5719 5719 5716 5713 5707 5705 5709 5712 5713 5714
5789 5787 5785 5783 5781 5779 5776 5774 5771 5768 5766 5763 5759 5755 5751 5749 5747 5745 5743 5742 5741 5740 5738 5736 5733 5731 5729 5727 5725 5724 5722 5721 5718 5716 5715 5713 5711 5709 5704 5701 5704 5707 5710
5788 5786 5785 5781 5778 5776 5773 5770 5767 5764 5763 5760 5757 5754 5751 5747 5744 5742 5739 5738 5737 5736 5735 5733 5731 5729 5726 5725 5723 5722 5720 5719 5718 5715 5713 5711 5707 5705 5702 5699 5699 5701 5705
5783 5780 5778 5776 5773 5771 5769 5766 5762 5760 5759 5757 5755 5752 5750 5747 5744 5741 5738 5735 5733 5732 5731 5731 5728 5726 5724 5723 5721 5720 5718 5717 5715 5714 5712 5711 5709 5707 5704 5699 5697 5697 5700
5778 5777 5776 5775 5772 5769 5766 5762 5759 5757 5756 5754 5752 5751 5749 5746 5744 5741 5738 5735 5733 5732 5730 5728 5726 5724 5722 5721 5719 5717 5716 5715 5714 5713 5711 5709 5708 5707 5705 5700 5696 5692 5692
5771 5772 5772 5771 5768 5766 5764 5761 5758 5755 5753 5752 5750 5748 5747 5745 5742 5740 5738 5735 5733 5731 5728 5726 5724 5722 5720 5718 5716 5714 5713 5712 5711 5710 5709 5707 5706 5706 5704 5702 5699 5692 5686
5765 5765 5766 5766 5765 5763 5761 5759 5757 5753 5751 5748 5747 5746 5744 5742 5740 5738 5735 5733 5731 5729 5726 5723 5721 5719 5718 5716 5713 5712 5710 5709 5708 5707 5706 5705 5704 5703 5702 5700 5698 5695 5689
5760 5759 5760 5760 5760 5758 5756 5755 5753 5750 5747 5744 5743 5741 5740 5739 5737 5735 5733 5731 5728 5726 5723 5721 5719 5716 5714 5713 5710 5709 5707 5705 5704 5704 5703 5702 5702 5700 5698 5697 5695 5692 5689
5754 5754 5753 5753 5753 5752 5750 5748 5748 5746 5744 5742 5740 5737 5735 5734 5732 5731 5730 5728 5726 5723 5721 5718 5715 5713 5711 5709 5707 5705 5704 5702 5700 5700 5699 5698 5698 5696 5695 5693 5691 5689 5687
5746 5746 5745 5745 5744 5745 5745 5742 5741 5741 5740 5738 5736 5732 5729 5727 5727 5727 5726 5724 5722 5720 5717 5715 5712 5710 5708 5706 5704 5702 5701 5699 5698 5697 5695 5694 5693 5691 5690 5689 5687 5685 5684
5738 5738 5736 5736 5737 5737 5737 5737 5735 5735 5735 5733 5730 5727 5726 5725 5723 5722 5721 5719 5718 5715 5713 5710 5708 5706 5704 5702 5700 5699 5697 5695 5695 5694 5693 5691 5690 5688 5686 5685 5683 5682 5679
5730 5731 5729 5728 5729 5729 5729 5728 5729 5729 5728 5726 5723 5722 5721 5720 5718 5715 5714 5714 5712 5711 5709 5706 5703 5701 5700 5698 5696 5694 5693 5691 5690 5689 5689 5688 5687 5686 5684 5682 5680 5678 5674
5723 5723 5722 5722 5722 5723 5722 5721 5721 5721 5720 5717 5716 5716 5715 5714 5711 5709 5708 5707 5706 5705 5703 5701 5698 5696 5695 5694 5692 5690 5687 5686 5684 5683 5682 5682 5681 5681 5679 5678 5677 5675 5671
5716 5715 5715 5714 5714 5715 5716 5714 5713 5713 5711 5710 5709 5708 5710 5708 5706 5704 5701 5700 5700 5699 5697 5694 5692 5690 5690 5689 5687 5685 5682 5680 5678 5677 5676 5677 5676 5674 5672 5671 5671 5669 5668
5708 5706 5706 5706 5707 5707 5707 5707 5706 5705 5704 5702 5702 5702 5702 5700 5698 5696 5694 5695 5695 5693 5691 5689 5687 5685 5685 5684 5682 5680 5677 5675 5673 5672 5671 5670 5669 5668 5666 5664 5663 5662 5661
5702 5701 5701 5700 5700 5699 5699 5699 5698 5697 5696 5695 5695 5695 5695 5693 5690 5688 5687 5688 5688 5686 5685 5684 5682 5680 5679 5678 5676 5674 5671 5668 5667 5666 5666 5665 5663 5663 5661 5658 5655 5654 5654
5695 5695 5695 5693 5692 5691 5692 5691 5689 5688 5687 5688 5688 5688 5688 5686 5684 5683 5682 5682 5682 5680 5679 5677 5676 5674 5673 5672 5670 5668 5665 5662 5660 5660 5659 5659 5658 5657 5655 5651 5649 5647 5647
5688 5689 5687 5686 5685 5684 5683 5682 5681 5680 5681 5681 5681 5681 5680 5679 5678 5676 5676 5676 5675 5673 5671 5670 5668 5667 5666 5665 5663 5661 5659 5656 5654 5653 5652 5652 5651 5650 5648 5646 5644 5643 5642
5680 5680 5678 5676 5676 5676 5674 5673 5672 5674 5674 5674 5673 5672 5672 5672 5672 5670 5669 5669 5668 5665 5663 5661 5660 5659 5658 5657 5656 5655 5653 5651 5648 5646 5646 5645 5644 5643 5641 5640 5639 5637 5635
5670 5672 5670 5667 5667 5667 5667 5665 5666 5666 5666 5665 5664 5664 5664 5664 5663 5663 5661 5660 5659 5657 5655 5653 5652 5652 5650 5649 5649 5648 5647 5644 5642 5640 5639 5638 5638 5636 5634 5634 5632 5630 5628
5663 5663 5662 5659 5658 5659 5660 5659 5659 5658 5657 5656 5656 5656 5655 5655 5655 5655 5654 5652 5651 5650 5647 5646 5645 5643 5642 5642 5641 5640 5638 5637 5634 5633 5632 5631 5630 5628 5627 5626 5624 5622 5620
5655 5655 5654 5652 5652 5651 5651 5651 5651 5650 5648 5647 5648 5647 5647 5647 5647 5647 5646 5646 5645 5645 5644 5642 5641 5638 5637 5638 5637 5634 5632 5630 5628 5625 5623 5622 5620 5618 5617 5616 5615 5614 5612
5647 5646 5646 5645 5644 5643 5643 5644 5644 5642 5640 5639 5639 5639 5638 5639 5639 5638 5637 5637 5638 5639 5639 5639 5637 5635 5635 5634 5632 5629 5627 5624 5621 5618 5616 5614 5612 5611 5609 5607 5606 5606 5604